DAL1551 KLAX-KSEA

Flight info

Callsign DAL1551
Flight time 2h 9m
Altitude 34000
Route SUMMR2 RIZIN FLW CSTRO SHIMR LKV HAWKZ8
Aircraft B739/M-SDE2E3FGHIRWXY/LB1

Departure

Time 2026-04-20 03:56
Airport Los Angeles International Airport (KLAX)

Arrival

Time 2026-04-20 06:06
Airport Seattle–Tacoma International Airport (KSEA)
Time Latitude Longitude Altitude Speed Heading
2026-04-20 03:29 33.94654 -118.40492 92 ft 0 kts 96°
2026-04-20 03:35 33.94654 -118.40493 92 ft 0 kts 96°
2026-04-20 03:44 33.94655 -118.40493 92 ft 0 kts 96°
2026-04-20 03:44 33.94654 -118.40493 92 ft 0 kts 96°
2026-04-20 03:44 33.94655 -118.40494 92 ft 0 kts 96°
2026-04-20 03:45 33.94656 -118.40509 92 ft 4 kts 83°
2026-04-20 03:45 33.94646 -118.40535 92 ft 4 kts 31°
2026-04-20 03:45 33.94622 -118.40544 92 ft 4 kts
2026-04-20 03:46 33.94624 -118.40544 93 ft 4 kts
2026-04-20 03:46 33.94641 -118.40547 92 ft 1 kts 352°
2026-04-20 03:49 33.94643 -118.40547 92 ft 2 kts 352°
2026-04-20 03:49 33.94665 -118.40551 92 ft 6 kts 352°
2026-04-20 03:50 33.94717 -118.40558 92 ft 3 kts 353°
2026-04-20 03:50 33.94718 -118.40559 92 ft 0 kts 353°
2026-04-20 03:51 33.94777 -118.40577 91 ft 17 kts 338°
2026-04-20 03:51 33.94862 -118.40568 94 ft 10 kts 63°
2026-04-20 03:51 33.94874 -118.40493 95 ft 10 kts 81°
2026-04-20 03:52 33.94884 -118.40401 93 ft 12 kts 82°
2026-04-20 03:52 33.94895 -118.40304 93 ft 11 kts 82°
2026-04-20 03:52 33.94905 -118.40215 96 ft 10 kts 84°
2026-04-20 03:52 33.94913 -118.40117 93 ft 15 kts 82°
2026-04-20 03:53 33.94929 -118.39976 92 ft 17 kts 82°
2026-04-20 03:53 33.94947 -118.39929 92 ft 0 kts 38°
2026-04-20 03:54 33.94948 -118.39927 93 ft 3 kts 38°
2026-04-20 03:55 33.95008 -118.39913 93 ft 12 kts 347°
2026-04-20 03:55 33.95040 -118.39977 93 ft 8 kts 263°
2026-04-20 03:55 33.95039 -118.39984 94 ft 0 kts 262°
2026-04-20 03:56 33.95036 -118.40009 93 ft 21 kts 262°
2026-04-20 03:56 33.94987 -118.40495 97 ft 97 kts 263°
2026-04-20 03:56 33.94875 -118.41575 118 ft 154 kts 262°
2026-04-20 03:56 33.94743 -118.42778 739 ft 155 kts 262°
2026-04-20 03:57 33.94562 -118.44133 1291 ft 177 kts 259°
2026-04-20 03:57 33.94342 -118.45666 1633 ft 192 kts 261°
2026-04-20 03:57 33.94213 -118.47282 2079 ft 194 kts 270°
2026-04-20 03:57 33.94245 -118.48923 2484 ft 201 kts 270°
2026-04-20 03:58 33.94249 -118.50648 2738 ft 214 kts 266°
2026-04-20 03:58 33.94121 -118.52514 2890 ft 233 kts 263°
2026-04-20 03:58 33.93954 -118.54514 3107 ft 249 kts 262°
2026-04-20 03:58 33.93776 -118.56678 3342 ft 267 kts 263°
2026-04-20 03:59 33.93596 -118.58928 3911 ft 271 kts 263°
2026-04-20 03:59 33.93418 -118.61193 4576 ft 273 kts 262°
2026-04-20 03:59 33.93237 -118.63478 5202 ft 275 kts 263°
2026-04-20 03:59 33.93057 -118.65782 5844 ft 277 kts 262°
2026-04-20 04:00 33.92877 -118.68109 6475 ft 280 kts 262°
2026-04-20 04:00 33.92695 -118.70449 7115 ft 281 kts 262°
2026-04-20 04:00 33.92513 -118.72799 7764 ft 283 kts 262°
2026-04-20 04:00 33.92329 -118.75165 8421 ft 285 kts 262°
2026-04-20 04:01 33.92144 -118.77545 9106 ft 287 kts 262°
2026-04-20 04:01 33.91955 -118.79944 9799 ft 289 kts 262°
2026-04-20 04:01 33.91764 -118.82371 10342 ft 297 kts 262°
2026-04-20 04:01 33.91646 -118.84946 10485 ft 320 kts 268°
2026-04-20 04:02 33.91733 -118.87705 10718 ft 337 kts 270°
2026-04-20 04:02 33.91868 -118.90558 11222 ft 344 kts 270°
2026-04-20 04:02 33.91987 -118.93441 11870 ft 346 kts 269°
2026-04-20 04:02 33.92083 -118.96300 12550 ft 348 kts 269°
2026-04-20 04:03 33.92171 -118.99258 13217 ft 351 kts 269°
2026-04-20 04:03 33.92558 -119.02143 13822 ft 361 kts 288°
2026-04-20 04:03 33.93761 -119.04821 14451 ft 366 kts 299°
2026-04-20 04:03 33.95137 -119.07411 15146 ft 368 kts 300°
2026-04-20 04:04 33.96526 -119.10013 15803 ft 370 kts 300°
2026-04-20 04:04 33.97906 -119.12640 16458 ft 372 kts 299°
2026-04-20 04:04 33.99279 -119.15292 17096 ft 375 kts 299°
2026-04-20 04:04 34.00681 -119.17951 17724 ft 378 kts 303°
2026-04-20 04:05 34.02579 -119.20177 18305 ft 386 kts 322°
2026-04-20 04:05 34.04793 -119.22030 18854 ft 389 kts 323°
2026-04-20 04:05 34.07022 -119.23895 19398 ft 391 kts 322°
2026-04-20 04:05 34.09255 -119.25780 19938 ft 393 kts 322°
2026-04-20 04:06 34.11494 -119.27685 20500 ft 395 kts 322°
2026-04-20 04:06 34.13741 -119.29610 21050 ft 397 kts 322°
2026-04-20 04:06 34.15995 -119.31550 21579 ft 399 kts 322°
2026-04-20 04:06 34.18263 -119.33506 22115 ft 402 kts 321°
2026-04-20 04:07 34.20540 -119.35474 22622 ft 404 kts 321°
2026-04-20 04:07 34.22831 -119.37456 23131 ft 407 kts 321°
2026-04-20 04:07 34.25142 -119.39456 23595 ft 410 kts 321°
2026-04-20 04:07 34.27468 -119.41469 24027 ft 412 kts 321°
2026-04-20 04:08 34.29799 -119.43489 24491 ft 413 kts 321°
2026-04-20 04:08 34.32138 -119.45516 24945 ft 414 kts 321°
2026-04-20 04:08 34.34483 -119.47550 25383 ft 416 kts 321°
2026-04-20 04:08 34.36840 -119.49596 25811 ft 418 kts 321°
2026-04-20 04:09 34.39211 -119.51656 26177 ft 421 kts 321°
2026-04-20 04:09 34.41643 -119.53659 26584 ft 425 kts 328°
2026-04-20 04:09 34.44352 -119.55152 27006 ft 430 kts 335°
2026-04-20 04:09 34.47147 -119.56467 27445 ft 432 kts 336°
2026-04-20 04:10 34.49960 -119.57749 27853 ft 434 kts 336°
2026-04-20 04:10 34.52787 -119.59047 28242 ft 435 kts 335°
2026-04-20 04:10 34.55623 -119.60374 28633 ft 437 kts 335°
2026-04-20 04:10 34.58452 -119.61722 29023 ft 439 kts 335°
2026-04-20 04:11 34.61304 -119.63097 29424 ft 441 kts 335°
2026-04-20 04:11 34.64156 -119.64483 29790 ft 443 kts 334°
2026-04-20 04:11 34.67018 -119.65878 30130 ft 444 kts 334°
2026-04-20 04:11 34.69896 -119.67283 30436 ft 446 kts 334°
2026-04-20 04:12 34.71799 -119.68212 30646 ft 447 kts 334°
2026-04-20 04:12 34.74682 -119.69620 31024 ft 445 kts 334°
2026-04-20 04:12 34.77550 -119.71020 31500 ft 442 kts 334°
2026-04-20 04:12 34.80396 -119.72410 31974 ft 440 kts 334°
2026-04-20 04:13 34.83240 -119.73801 32269 ft 441 kts 334°
2026-04-20 04:13 34.87012 -119.75649 32694 ft 441 kts 334°
2026-04-20 04:13 34.89845 -119.77037 33154 ft 437 kts 334°
2026-04-20 04:13 34.91745 -119.77968 33459 ft 435 kts 334°
2026-04-20 04:14 34.94545 -119.79341 33835 ft 433 kts 334°
2026-04-20 04:14 34.97346 -119.80718 33954 ft 437 kts 334°
2026-04-20 04:14 35.03008 -119.83502 33958 ft 439 kts 334°
2026-04-20 04:15 35.08642 -119.86122 33949 ft 436 kts 340°
2026-04-20 04:15 35.14683 -119.87126 33963 ft 441 kts 352°
2026-04-20 04:16 35.20816 -119.87495 33960 ft 441 kts 352°
2026-04-20 04:16 35.26949 -119.87869 33952 ft 442 kts 352°
2026-04-20 04:17 35.33095 -119.88281 33948 ft 443 kts 352°
2026-04-20 04:17 35.39261 -119.88714 33940 ft 445 kts 352°
2026-04-20 04:18 35.45455 -119.89156 33933 ft 447 kts 352°
2026-04-20 04:18 35.51675 -119.89599 33927 ft 449 kts 352°
2026-04-20 04:19 35.57922 -119.90043 33925 ft 450 kts 352°
2026-04-20 04:19 35.64180 -119.90489 33932 ft 451 kts 352°
2026-04-20 04:20 35.70457 -119.90937 33922 ft 452 kts 352°
2026-04-20 04:20 35.76748 -119.91386 33914 ft 453 kts 352°
2026-04-20 04:21 35.83037 -119.91836 33902 ft 453 kts 352°
2026-04-20 04:21 35.89334 -119.92287 33905 ft 453 kts 351°
2026-04-20 04:22 35.95622 -119.92739 33899 ft 453 kts 351°
2026-04-20 04:22 36.01864 -119.93187 33898 ft 452 kts 351°
2026-04-20 04:23 36.08132 -119.93639 33903 ft 451 kts 352°
2026-04-20 04:23 36.14396 -119.94091 33900 ft 451 kts 351°
2026-04-20 04:24 36.20652 -119.94543 33907 ft 450 kts 351°
2026-04-20 04:24 36.25575 -119.94900 33906 ft 450 kts 351°
2026-04-20 04:25 36.31820 -119.95352 33910 ft 449 kts 352°
2026-04-20 04:25 36.38060 -119.95806 33909 ft 449 kts 352°
2026-04-20 04:26 36.44303 -119.96260 33907 ft 449 kts 352°
2026-04-20 04:26 36.50548 -119.96715 33908 ft 450 kts 352°
2026-04-20 04:27 36.56802 -119.97171 33912 ft 450 kts 352°
2026-04-20 04:27 36.63061 -119.97629 33915 ft 450 kts 352°
2026-04-20 04:28 36.69281 -119.98082 33910 ft 445 kts 352°
2026-04-20 04:28 36.75397 -119.98529 33912 ft 442 kts 352°
2026-04-20 04:29 36.81523 -119.98979 33906 ft 440 kts 351°
2026-04-20 04:29 36.87055 -119.99387 33908 ft 440 kts 351°
2026-04-20 04:31 36.92859 -119.99817 33894 ft 444 kts 351°
2026-04-20 04:32 36.99090 -120.00281 33887 ft 452 kts 351°
2026-04-20 04:32 37.04943 -120.00712 33875 ft 451 kts 351°
2026-04-20 04:33 37.11207 -120.01172 33901 ft 450 kts 351°
2026-04-20 04:33 37.17465 -120.01635 33890 ft 450 kts 351°
2026-04-20 04:34 37.23716 -120.02099 33899 ft 450 kts 351°
2026-04-20 04:34 37.27497 -120.02380 33897 ft 450 kts 351°
2026-04-20 04:36 37.36291 -120.03035 33906 ft 449 kts 351°
2026-04-20 04:37 37.42526 -120.03501 33912 ft 449 kts 351°
2026-04-20 04:37 37.48760 -120.03967 33923 ft 448 kts 351°
2026-04-20 04:38 37.54991 -120.04433 33935 ft 449 kts 351°
2026-04-20 04:38 37.61233 -120.04902 33932 ft 449 kts 351°
2026-04-20 04:39 37.67225 -120.05352 33935 ft 450 kts 351°
2026-04-20 04:39 37.73550 -120.05828 33935 ft 451 kts 351°
2026-04-20 04:40 37.79820 -120.06301 33942 ft 452 kts 351°
2026-04-20 04:40 37.86111 -120.06776 33934 ft 454 kts 352°
2026-04-20 04:41 37.92425 -120.07254 33946 ft 455 kts 352°
2026-04-20 04:41 37.98758 -120.07734 33952 ft 456 kts 352°
2026-04-20 04:42 38.05107 -120.08215 33958 ft 457 kts 352°
2026-04-20 04:42 38.11468 -120.08698 33969 ft 458 kts 352°
2026-04-20 04:43 38.17798 -120.09180 33962 ft 459 kts 352°
2026-04-20 04:43 38.24170 -120.09668 33963 ft 459 kts 351°
2026-04-20 04:44 38.30529 -120.10226 33977 ft 458 kts 351°
2026-04-20 04:44 38.36886 -120.10820 33975 ft 458 kts 351°
2026-04-20 04:45 38.43236 -120.11409 33980 ft 457 kts 351°
2026-04-20 04:45 38.49589 -120.11991 33980 ft 458 kts 351°
2026-04-20 04:46 38.55940 -120.12573 33977 ft 458 kts 351°
2026-04-20 04:46 38.62302 -120.13156 33978 ft 458 kts 351°
2026-04-20 04:47 38.68662 -120.13739 33973 ft 458 kts 351°
2026-04-20 04:47 38.75025 -120.14323 33981 ft 459 kts 351°
2026-04-20 04:48 38.81390 -120.14909 33984 ft 459 kts 351°
2026-04-20 04:48 38.87756 -120.15497 33969 ft 459 kts 351°
2026-04-20 04:49 38.94130 -120.16085 33960 ft 460 kts 351°
2026-04-20 04:49 39.00519 -120.16677 33972 ft 461 kts 351°
2026-04-20 04:50 39.06919 -120.17271 33998 ft 461 kts 351°
2026-04-20 04:50 39.13327 -120.17866 34024 ft 462 kts 351°
2026-04-20 04:51 39.19754 -120.18464 34054 ft 464 kts 351°
2026-04-20 04:51 39.26207 -120.19066 34063 ft 466 kts 351°
2026-04-20 04:52 39.32683 -120.19671 34062 ft 467 kts 351°
2026-04-20 04:52 39.39170 -120.20278 33931 ft 468 kts 351°
2026-04-20 04:53 39.45669 -120.20887 33919 ft 468 kts 351°
2026-04-20 04:53 39.52122 -120.21492 33922 ft 469 kts 351°
2026-04-20 04:54 39.58630 -120.22105 33918 ft 469 kts 351°
2026-04-20 04:54 39.65131 -120.22718 33905 ft 468 kts 351°
2026-04-20 04:55 39.71636 -120.23332 33911 ft 469 kts 351°
2026-04-20 04:55 39.78141 -120.23947 33906 ft 469 kts 351°
2026-04-20 04:56 39.84643 -120.24564 33903 ft 469 kts 351°
2026-04-20 04:56 39.91155 -120.25183 33901 ft 469 kts 351°
2026-04-20 04:57 39.97669 -120.25803 33894 ft 470 kts 351°
2026-04-20 04:57 40.04179 -120.26424 33889 ft 469 kts 351°
2026-04-20 04:58 40.10689 -120.27045 33900 ft 469 kts 351°
2026-04-20 04:58 40.17187 -120.27667 33916 ft 468 kts 351°
2026-04-20 04:59 40.23688 -120.28291 33927 ft 469 kts 351°
2026-04-20 04:59 40.30188 -120.28916 33950 ft 469 kts 351°
2026-04-20 05:00 40.36696 -120.29543 33949 ft 469 kts 351°
2026-04-20 05:00 40.43203 -120.30171 33948 ft 469 kts 351°
2026-04-20 05:01 40.49674 -120.30796 33943 ft 469 kts 351°
2026-04-20 05:01 40.56178 -120.31426 33932 ft 469 kts 351°
2026-04-20 05:02 40.62687 -120.32057 33922 ft 469 kts 351°
2026-04-20 05:02 40.69189 -120.32689 33901 ft 469 kts 351°
2026-04-20 05:03 40.75688 -120.33322 33907 ft 468 kts 351°
2026-04-20 05:03 40.81087 -120.33849 33911 ft 468 kts 352°
2026-04-20 05:04 40.87571 -120.34483 33910 ft 467 kts 352°
2026-04-20 05:04 40.94047 -120.35117 33914 ft 467 kts 352°
2026-04-20 05:05 41.00526 -120.35753 33924 ft 467 kts 352°
2026-04-20 05:05 41.07013 -120.36391 33919 ft 467 kts 352°
2026-04-20 05:06 41.13494 -120.37030 33905 ft 467 kts 352°
2026-04-20 05:06 41.19963 -120.37668 33935 ft 466 kts 352°
2026-04-20 05:07 41.26427 -120.38308 33943 ft 466 kts 352°
2026-04-20 05:07 41.32886 -120.38948 33957 ft 465 kts 352°
2026-04-20 05:08 41.39338 -120.39589 33979 ft 464 kts 352°
2026-04-20 05:08 41.45776 -120.40229 33976 ft 463 kts 352°
2026-04-20 05:09 41.52199 -120.40869 33916 ft 462 kts 352°
2026-04-20 05:09 41.58604 -120.41510 33922 ft 461 kts 352°
2026-04-20 05:10 41.64999 -120.42150 33935 ft 460 kts 352°
2026-04-20 05:10 41.71384 -120.42791 33942 ft 460 kts 352°
2026-04-20 05:11 41.77726 -120.43429 33951 ft 461 kts 352°
2026-04-20 05:11 41.84130 -120.44074 33962 ft 462 kts 353°
2026-04-20 05:12 41.90558 -120.44723 33975 ft 464 kts 353°
2026-04-20 05:12 41.97014 -120.45376 33990 ft 467 kts 353°
2026-04-20 05:13 42.03513 -120.46035 33998 ft 470 kts 353°
2026-04-20 05:13 42.10055 -120.46699 34005 ft 472 kts 353°
2026-04-20 05:14 42.16630 -120.47368 34000 ft 475 kts 353°
2026-04-20 05:14 42.23236 -120.48041 33979 ft 477 kts 353°
2026-04-20 05:15 42.29854 -120.48717 33972 ft 477 kts 353°
2026-04-20 05:15 42.36472 -120.49395 33971 ft 477 kts 353°
2026-04-20 05:16 42.43083 -120.50072 33967 ft 476 kts 353°
2026-04-20 05:16 42.49647 -120.50937 33939 ft 470 kts 342°
2026-04-20 05:16 42.52654 -120.52506 34002 ft 460 kts 330°
2026-04-20 05:17 42.55551 -120.54344 33945 ft 460 kts 330°
2026-04-20 05:17 42.61317 -120.57947 33959 ft 459 kts 331°
2026-04-20 05:18 42.66683 -120.61233 33940 ft 459 kts 331°
2026-04-20 05:18 42.72329 -120.64664 33935 ft 458 kts 331°
2026-04-20 05:19 42.78151 -120.68201 33952 ft 458 kts 331°
2026-04-20 05:19 42.83966 -120.71743 33950 ft 458 kts 331°
2026-04-20 05:20 42.89786 -120.75299 33947 ft 459 kts 331°
2026-04-20 05:20 42.95627 -120.78876 33941 ft 461 kts 331°
2026-04-20 05:21 43.01491 -120.82474 33943 ft 463 kts 331°
2026-04-20 05:21 43.07377 -120.86094 33946 ft 465 kts 331°
2026-04-20 05:22 43.13283 -120.89732 33932 ft 466 kts 331°
2026-04-20 05:22 43.19203 -120.93387 33932 ft 467 kts 331°
2026-04-20 05:23 43.25136 -120.97057 33930 ft 468 kts 331°
2026-04-20 05:23 43.31075 -121.00739 33911 ft 468 kts 332°
2026-04-20 05:24 43.36994 -121.04416 33921 ft 466 kts 332°
2026-04-20 05:24 43.42895 -121.08092 33910 ft 465 kts 332°
2026-04-20 05:25 43.47854 -121.11186 33916 ft 464 kts 332°
2026-04-20 05:25 43.50589 -121.12895 33918 ft 464 kts 332°
2026-04-20 05:26 43.56456 -121.16567 33927 ft 463 kts 332°
2026-04-20 05:26 43.62321 -121.20246 33925 ft 463 kts 332°
2026-04-20 05:27 43.68148 -121.23910 33912 ft 464 kts 332°
2026-04-20 05:27 43.74025 -121.27612 33919 ft 464 kts 332°
2026-04-20 05:28 43.79905 -121.31323 33923 ft 465 kts 332°
2026-04-20 05:28 43.85799 -121.35051 33930 ft 466 kts 332°
2026-04-20 05:29 43.91706 -121.38796 33954 ft 467 kts 332°
2026-04-20 05:29 43.97622 -121.42556 33944 ft 468 kts 332°
2026-04-20 05:30 44.03550 -121.46331 33925 ft 469 kts 332°
2026-04-20 05:30 44.09479 -121.50114 33932 ft 469 kts 332°
2026-04-20 05:31 44.15408 -121.53907 33924 ft 469 kts 332°
2026-04-20 05:31 44.21289 -121.57678 33925 ft 468 kts 332°
2026-04-20 05:32 44.27209 -121.61481 33914 ft 468 kts 332°
2026-04-20 05:32 44.33128 -121.65293 33915 ft 468 kts 332°
2026-04-20 05:33 44.39043 -121.69111 33910 ft 468 kts 332°
2026-04-20 05:33 44.44959 -121.72938 33911 ft 468 kts 332°
2026-04-20 05:34 44.50877 -121.76775 33929 ft 469 kts 332°
2026-04-20 05:34 44.59767 -121.82554 33912 ft 470 kts 332°
2026-04-20 05:35 44.65698 -121.86421 33929 ft 470 kts 332°
2026-04-20 05:35 44.71627 -121.90295 33927 ft 470 kts 332°
2026-04-20 05:36 44.77493 -121.94137 33911 ft 470 kts 333°
2026-04-20 05:36 44.83417 -121.98026 33933 ft 469 kts 333°
2026-04-20 05:37 44.89334 -122.01919 33921 ft 469 kts 333°
2026-04-20 05:37 44.95245 -122.05816 33904 ft 468 kts 333°
2026-04-20 05:38 45.01134 -122.09709 33922 ft 467 kts 333°
2026-04-20 05:38 45.07020 -122.13609 33909 ft 467 kts 333°
2026-04-20 05:39 45.12912 -122.17521 33891 ft 468 kts 333°
2026-04-20 05:39 45.18799 -122.21439 33897 ft 468 kts 333°
2026-04-20 05:40 45.24687 -122.25367 33898 ft 468 kts 333°
2026-04-20 05:40 45.30548 -122.29285 33884 ft 469 kts 332°
2026-04-20 05:41 45.36454 -122.33241 33890 ft 470 kts 332°
2026-04-20 05:41 45.42351 -122.37201 33807 ft 465 kts 332°
2026-04-20 05:42 45.45270 -122.39164 33381 ft 461 kts 332°
2026-04-20 05:42 45.48153 -122.41105 32924 ft 457 kts 332°
2026-04-20 05:42 45.51010 -122.43031 32487 ft 452 kts 332°
2026-04-20 05:42 45.53839 -122.44941 32017 ft 448 kts 332°
2026-04-20 05:43 45.56643 -122.46837 31574 ft 444 kts 332°
2026-04-20 05:43 45.59425 -122.48720 31149 ft 441 kts 332°
2026-04-20 05:43 45.62188 -122.50593 30715 ft 438 kts 332°
2026-04-20 05:43 45.64931 -122.52453 30274 ft 435 kts 332°
2026-04-20 05:44 45.67652 -122.54302 29829 ft 432 kts 332°
2026-04-20 05:44 45.70358 -122.56141 29294 ft 429 kts 332°
2026-04-20 05:44 45.73041 -122.57965 28855 ft 425 kts 332°
2026-04-20 05:44 45.75767 -122.59557 28424 ft 422 kts 346°
2026-04-20 05:45 45.78616 -122.60334 28182 ft 414 kts 350°
2026-04-20 05:45 45.81455 -122.60974 27741 ft 411 kts 351°
2026-04-20 05:45 45.84267 -122.61593 27336 ft 408 kts 351°
2026-04-20 05:45 45.87059 -122.62228 26908 ft 405 kts 351°
2026-04-20 05:46 45.89834 -122.62885 26472 ft 403 kts 350°
2026-04-20 05:46 45.92585 -122.63554 26076 ft 400 kts 350°
2026-04-20 05:46 45.95322 -122.64230 25666 ft 398 kts 350°
2026-04-20 05:46 45.98041 -122.64907 25264 ft 396 kts 350°
2026-04-20 05:47 46.00745 -122.65581 24869 ft 394 kts 351°
2026-04-20 05:47 46.03441 -122.66253 24470 ft 392 kts 351°
2026-04-20 05:47 46.06123 -122.66921 24060 ft 391 kts 351°
2026-04-20 05:47 46.08797 -122.67588 23646 ft 389 kts 351°
2026-04-20 05:48 46.11447 -122.68206 23350 ft 382 kts 352°
2026-04-20 05:48 46.14071 -122.68728 22970 ft 378 kts 353°
2026-04-20 05:48 46.16667 -122.69217 22611 ft 374 kts 353°
2026-04-20 05:48 46.19242 -122.69704 22203 ft 372 kts 353°
2026-04-20 05:49 46.21795 -122.70196 21807 ft 369 kts 353°
2026-04-20 05:49 46.24334 -122.70694 21407 ft 367 kts 352°
2026-04-20 05:49 46.26858 -122.71193 21018 ft 365 kts 352°
2026-04-20 05:49 46.29364 -122.71691 20630 ft 362 kts 352°
2026-04-20 05:50 46.31853 -122.72184 20242 ft 360 kts 353°
2026-04-20 05:50 46.34312 -122.72475 19874 ft 358 kts 358°
2026-04-20 05:50 46.36793 -122.72569 19502 ft 356 kts 359°
2026-04-20 05:50 46.39262 -122.72609 19122 ft 354 kts 360°
2026-04-20 05:51 46.41720 -122.72648 18732 ft 353 kts 359°
2026-04-20 05:51 46.44172 -122.72700 18357 ft 352 kts 359°
2026-04-20 05:51 46.46619 -122.72765 17922 ft 351 kts 359°
2026-04-20 05:51 46.49054 -122.72841 17493 ft 349 kts 359°
2026-04-20 05:52 46.51479 -122.72923 17106 ft 347 kts 359°
2026-04-20 05:52 46.53884 -122.73007 16720 ft 345 kts 359°
2026-04-20 05:52 46.56277 -122.73093 16358 ft 343 kts 359°
2026-04-20 05:52 46.58651 -122.73178 15993 ft 340 kts 359°
2026-04-20 05:53 46.60214 -122.73235 15749 ft 339 kts 359°
2026-04-20 05:53 46.63358 -122.73349 15258 ft 337 kts 359°
2026-04-20 05:53 46.64910 -122.73405 15011 ft 336 kts 359°
2026-04-20 05:53 46.67246 -122.73489 14647 ft 335 kts 359°
2026-04-20 05:54 46.69577 -122.73574 14268 ft 335 kts 359°
2026-04-20 05:54 46.71906 -122.73659 13884 ft 335 kts 359°
2026-04-20 05:54 46.74232 -122.73743 13486 ft 334 kts 359°
2026-04-20 05:54 46.76548 -122.73818 13095 ft 332 kts
2026-04-20 05:55 46.78787 -122.73174 12700 ft 327 kts 26°
2026-04-20 05:55 46.80680 -122.71428 12364 ft 320 kts 42°
2026-04-20 05:55 46.82390 -122.69370 11995 ft 318 kts 43°
2026-04-20 05:55 46.84086 -122.67310 11606 ft 316 kts 42°
2026-04-20 05:56 46.85719 -122.65189 11272 ft 313 kts 46°
2026-04-20 05:56 46.87283 -122.62993 10925 ft 311 kts 46°
2026-04-20 05:56 46.88839 -122.60807 10579 ft 310 kts 46°
2026-04-20 05:56 46.90395 -122.58640 10235 ft 309 kts 46°
2026-04-20 05:57 46.91911 -122.56467 10074 ft 300 kts 48°
2026-04-20 05:57 46.93346 -122.54292 9811 ft 296 kts 49°
2026-04-20 05:57 46.94770 -122.52119 9464 ft 295 kts 48°
2026-04-20 05:57 46.96192 -122.49962 9145 ft 293 kts 48°
2026-04-20 05:58 46.97587 -122.47854 9027 ft 283 kts 48°
2026-04-20 05:58 46.99061 -122.45975 8743 ft 282 kts 35°
2026-04-20 05:58 47.00748 -122.44517 8449 ft 281 kts 30°
2026-04-20 05:58 47.02461 -122.43153 8128 ft 279 kts 30°
2026-04-20 05:59 47.04163 -122.41788 7855 ft 278 kts 30°
2026-04-20 05:59 47.05824 -122.40427 7552 ft 277 kts 30°
2026-04-20 05:59 47.07493 -122.39034 7242 ft 275 kts 31°
2026-04-20 05:59 47.09151 -122.37636 6938 ft 274 kts 31°
2026-04-20 06:00 47.10821 -122.36223 6625 ft 273 kts 31°
2026-04-20 06:00 47.12473 -122.34865 6296 ft 270 kts 26°
2026-04-20 06:00 47.14243 -122.34073 5964 ft 264 kts 14°
2026-04-20 06:00 47.16002 -122.33479 5674 ft 262 kts 14°
2026-04-20 06:01 47.17767 -122.32846 5398 ft 260 kts 15°
2026-04-20 06:01 47.19514 -122.32205 5101 ft 259 kts 13°
2026-04-20 06:01 47.21301 -122.31916 4785 ft 259 kts
2026-04-20 06:01 47.23101 -122.31932 4437 ft 259 kts
2026-04-20 06:02 47.24900 -122.31957 4091 ft 257 kts
2026-04-20 06:02 47.26666 -122.31952 3748 ft 250 kts
2026-04-20 06:02 47.28386 -122.31937 3422 ft 244 kts
2026-04-20 06:02 47.30062 -122.31922 3112 ft 237 kts
2026-04-20 06:03 47.31675 -122.31909 2800 ft 224 kts
2026-04-20 06:03 47.33176 -122.31896 2500 ft 207 kts
2026-04-20 06:03 47.34558 -122.31885 2250 ft 191 kts
2026-04-20 06:03 47.35847 -122.31874 2006 ft 180 kts
2026-04-20 06:04 47.37053 -122.31864 1779 ft 167 kts
2026-04-20 06:04 47.38179 -122.31855 1588 ft 160 kts
2026-04-20 06:04 47.39270 -122.31846 1337 ft 152 kts
2026-04-20 06:04 47.40301 -122.31837 1136 ft 147 kts
2026-04-20 06:05 47.41325 -122.31829 944 ft 147 kts
2026-04-20 06:05 47.42339 -122.31817 729 ft 146 kts
2026-04-20 06:05 47.43346 -122.31810 526 ft 143 kts 359°
2026-04-20 06:05 47.44330 -122.31804 393 ft 138 kts
2026-04-20 06:06 47.44608 -122.31802 381 ft 0 kts
2026-04-20 06:06 47.44655 -122.31801 382 ft 8 kts
2026-04-20 06:06 47.44710 -122.31800 384 ft 8 kts
2026-04-20 06:07 47.44802 -122.31797 388 ft 21 kts
2026-04-20 06:07 47.45008 -122.31791 391 ft 36 kts
2026-04-20 06:07 47.45247 -122.31775 394 ft 32 kts
2026-04-20 06:07 47.45435 -122.31648 399 ft 27 kts 42°
2026-04-20 06:08 47.45504 -122.31418 406 ft 19 kts 88°
2026-04-20 06:08 47.45508 -122.31269 414 ft 14 kts 90°
2026-04-20 06:08 47.45508 -122.31131 421 ft 13 kts 90°
2026-04-20 06:08 47.45507 -122.30993 414 ft 14 kts 90°
2026-04-20 06:09 47.45513 -122.30922 423 ft 0 kts 55°
2026-04-20 06:09 47.45521 -122.30905 416 ft 4 kts 55°
2026-04-20 06:10 47.45538 -122.30874 420 ft 6 kts 50°
2026-04-20 06:10 47.45574 -122.30793 428 ft 14 kts 76°
2026-04-20 06:10 47.45525 -122.30658 426 ft 16 kts 149°
2026-04-20 06:10 47.45417 -122.30624 421 ft 16 kts 181°
2026-04-20 06:11 47.45301 -122.30625 416 ft 18 kts 180°
2026-04-20 06:11 47.45154 -122.30628 411 ft 23 kts 181°
2026-04-20 06:11 47.44994 -122.30624 407 ft 23 kts 179°
2026-04-20 06:11 47.44839 -122.30630 405 ft 22 kts 179°
2026-04-20 06:12 47.44688 -122.30631 401 ft 21 kts 180°
2026-04-20 06:12 47.44542 -122.30631 397 ft 21 kts 180°
2026-04-20 06:12 47.44400 -122.30634 393 ft 20 kts 180°
2026-04-20 06:12 47.44262 -122.30633 389 ft 20 kts 180°
2026-04-20 06:13 47.44128 -122.30633 386 ft 19 kts 180°
2026-04-20 06:13 47.44003 -122.30608 383 ft 18 kts 132°
2026-04-20 06:13 47.43990 -122.30427 384 ft 18 kts 91°
2026-04-20 06:13 47.44025 -122.30261 387 ft 17 kts 49°
2026-04-20 06:14 47.44102 -122.30190 389 ft 7 kts 34°
2026-04-20 06:14 47.44136 -122.30149 391 ft 4 kts 40°
2026-04-20 06:14 47.44148 -122.30135 391 ft 0 kts 39°
2026-04-20 06:15 47.44149 -122.30133 391 ft 0 kts 39°
2026-04-20 06:19 47.44148 -122.30134 391 ft 0 kts 39°